Location: 22
(39.7117°N, 89.5929°W)
Time: 10:01:17
(UTC-06:00)

Tiros 1 despin weight - All Passes

Search period start: 29 January 2023 00:00
Search period end: 08 February 2023 00:00
Orbit: 589 x 636 km, 48.2° (Epoch: 28 January)

Date Brightness Start Highest point End Pass type
(mag) Time Alt. Az. Time Alt. Az. Time Alt. Az.
29 Jan - 00:18:15 10° WNW 00:22:35 58° SW 00:26:52 10° SE night (unlit)
29 Jan - 16:06:18 10° SSE 16:08:55 15° SE 16:11:32 10° E daylight
29 Jan - 17:45:17 10° SW 17:49:50 81° SSE 17:54:20 10° ENE visible
29 Jan - 19:27:29 10° W 19:31:36 34° NNW 19:35:41 10° NE visible
29 Jan - 21:10:01 10° NW 21:13:54 28° N 21:17:43 10° ENE visible
29 Jan - 22:51:34 10° NW 22:55:57 57° NNE 23:00:16 10° ESE night (unlit)
30 Jan - 00:33:19 10° WNW 00:37:12 31° SW 00:41:03 10° SSE night (unlit)
30 Jan - 16:19:29 10° SSW 16:23:26 29° SE 16:27:19 10° ENE daylight
30 Jan - 18:00:09 10° WSW 18:04:39 62° NNW 18:09:07 10° NE visible
30 Jan - 19:42:45 10° WNW 19:46:41 28° N 19:50:33 10° NE visible
30 Jan - 21:24:57 10° NW 21:28:59 32° NNE 21:32:58 10° ENE visible
30 Jan - 23:06:20 10° WNW 23:10:47 87° SSW 23:15:10 10° ESE night (unlit)
31 Jan - 00:49:00 10° W 00:51:41 16° SW 00:54:22 10° S night (unlit)
31 Jan - 16:33:34 10° SW 16:38:01 54° SE 16:42:26 10° ENE daylight
31 Jan - 18:15:16 10° W 18:19:35 41° NNW 18:23:51 10° NE visible
31 Jan - 19:57:57 10° WNW 20:01:48 27° N 20:05:36 10° ENE visible
31 Jan - 21:39:44 10° NW 21:44:00 43° NNE 21:48:12 10° E night (unlit)
31 Jan - 23:21:13 10° WNW 23:25:29 48° SW 23:29:42 10° SE night (unlit)
01 Feb - 15:08:32 10° S 15:11:44 19° SE 15:14:55 10° E daylight
01 Feb - 16:48:09 10° WSW 16:52:44 86° NNW 16:57:17 10° ENE daylight
01 Feb - 18:30:31 10° WNW 18:34:36 32° NNW 18:38:38 10° NE visible
01 Feb - 20:12:58 10° NW 20:16:54 29° N 20:20:47 10° ENE visible
01 Feb - 21:54:28 10° NW 21:58:54 66° NNE 22:03:16 10° ESE night (unlit)
01 Feb - 23:36:24 10° W 23:40:03 25° SW 23:43:39 10° SSE night (unlit)
02 Feb - 15:22:04 10° SSW 15:26:14 35° SE 15:30:23 10° ENE daylight
02 Feb - 17:03:05 10° WSW 17:07:35 54° NNW 17:12:01 10° NE daylight
02 Feb - 18:45:46 10° WNW 18:49:41 28° N 18:53:33 10° NE visible
02 Feb - 20:27:50 10° NW 20:31:58 35° NNE 20:36:03 10° E visible
02 Feb - 22:09:14 10° WNW 22:13:40 74° SW 22:18:04 10° SE night (unlit)
02 Feb - 23:52:28 10° WSW 23:54:28 13° SW 23:56:28 10° SSW night (unlit)
03 Feb - 13:58:29 10° SSE 14:00:05 12° SE 14:01:39 10° ESE daylight
03 Feb - 15:36:18 10° SW 15:40:51 65° SE 15:45:22 10° ENE daylight
03 Feb - 17:18:14 10° W 17:22:31 38° NNW 17:26:45 10° NE daylight
03 Feb - 19:00:54 10° WNW 19:04:47 27° N 19:08:38 10° ENE visible
03 Feb - 20:42:35 10° NW 20:46:56 48° NNE 20:51:14 10° E visible
03 Feb - 22:24:10 10° WNW 22:28:20 39° SW 22:32:25 10° SSE night (unlit)
04 Feb - 14:10:52 10° S 14:14:30 23° SE 14:18:06 10° E daylight
04 Feb - 15:51:00 10° WSW 15:55:36 75° NNW 16:00:09 10° ENE daylight
04 Feb - 17:33:30 10° WNW 17:37:32 30° N 17:41:33 10° NE daylight
04 Feb - 19:15:51 10° NW 19:19:52 30° N 19:23:50 10° ENE visible
04 Feb - 20:57:19 10° WNW 21:01:47 77° NNE 21:06:12 10° ESE visible
04 Feb - 22:39:30 10° W 22:42:50 21° SW 22:46:08 10° S night (unlit)
05 Feb - 14:24:39 10° SSW 14:29:01 42° SE 14:33:21 10° ENE daylight
05 Feb - 16:06:00 10° W 16:10:28 48° NNW 16:14:52 10° NE daylight
05 Feb - 17:48:42 10° WNW 17:52:37 27° N 17:56:30 10° ENE visible
05 Feb - 19:30:39 10° NW 19:34:54 38° NNE 19:39:04 10° E visible
05 Feb - 21:12:06 10° WNW 21:16:31 62° SW 21:20:52 10° SE visible
05 Feb - 22:56:42 10° WSW 22:57:12 10° SW 22:57:43 10° SW night (unlit)
06 Feb - 13:00:14 10° SSE 13:02:47 15° SE 13:05:19 10° E daylight
06 Feb - 14:39:03 10° SW 14:43:39 77° SSE 14:48:15 10° ENE daylight
06 Feb - 16:21:11 10° W 16:25:25 35° NNW 16:29:36 10° NE daylight
06 Feb - 18:03:46 10° NW 18:07:43 28° N 18:11:37 10° ENE visible
06 Feb - 19:45:23 10° NW 19:49:49 55° NNE 19:54:11 10° ESE visible
06 Feb - 21:27:06 10° WNW 21:31:06 33° SW 21:35:02 10° SSE visible
07 Feb - 13:13:17 10° SSW 13:17:13 28° SE 13:21:08 10° ENE daylight
07 Feb - 14:53:50 10° WSW 14:58:25 65° NNW 15:02:59 10° NE daylight
07 Feb - 16:36:26 10° WNW 16:40:27 29° N 16:44:26 10° NE daylight
07 Feb - 18:18:40 10° NW 18:22:46 32° NNE 18:26:49 10° ENE visible
07 Feb - 20:00:06 10° WNW 20:04:37 89° NNE 20:09:03 10° ESE visible
07 Feb - 21:42:38 10° W 21:45:33 17° SW 21:48:26 10° S night (unlit)
